| time (UTC) | temp C | wind direction | speed KPH | gust KPH | rain 1hr cm | rain 24hr cm | rain mn cm | humidity % | barometer mb |
| 20260508034548 | 1 | 248 | 0.0 | 0.0 | 0.00 | 0.00 | 0.00 | 70 | 1009.1 |
| 20260508034041 | 1 | 248 | 0.0 | 0.0 | 0.00 | 0.00 | 0.00 | 72 | 1009.0 |
| 20260508033543 | 2 | 248 | 0.0 | 0.0 | 0.00 | 0.00 | 0.00 | 71 | 1008.8 |
| 20260508033042 | 2 | 248 | 0.0 | 0.0 | 0.00 | 0.00 | 0.00 | 68 | 1008.7 |
| 20260508032544 | 2 | 248 | 0.0 | 0.0 | 0.00 | 0.00 | 0.00 | 67 | 1008.8 |
| 20260508032040 | 2 | 248 | 0.0 | 0.0 | 0.00 | 0.00 | 0.00 | 65 | 1008.7 |
| 20260508031543 | 2 | 248 | 0.0 | 0.0 | 0.00 | 0.00 | 0.00 | 65 | 1008.6 |
| 20260508031040 | 2 | 248 | 0.0 | 0.0 | 0.00 | 0.00 | 0.00 | 65 | 1008.7 |
| 20260508030541 | 2 | 248 | 0.0 | 3.2 | 0.00 | 0.00 | 0.00 | 64 | 1008.7 |
| 20260508030044 | 2 | 248 | 0.0 | 3.2 | 0.00 | 0.00 | 0.00 | 64 | 1008.7 |
| 20260508025544 | 2 | 248 | 0.0 | 3.2 | 0.00 | 0.00 | 0.00 | 63 | 1008.7 |
| 20260508025040 | 2 | 248 | 0.0 | 3.2 | 0.00 | 0.00 | 0.00 | 62 | 1008.7 |
| 20260508024544 | 2 | 248 | 1.6 | 3.2 | 0.00 | 0.00 | 0.00 | 61 | 1008.8 |
| 20260508024040 | 3 | 248 | 0.0 | 3.2 | 0.00 | 0.00 | 0.00 | 60 | 1008.8 |
| 20260508023540 | 3 | 249 | 0.0 | 4.8 | 0.00 | 0.00 | 0.00 | 59 | 1009.0 |
| 20260508023039 | 3 | 249 | 0.0 | 4.8 | 0.00 | 0.00 | 0.00 | 60 | 1009.0 |
| 20260508022542 | 3 | 302 | 0.0 | 3.2 | 0.00 | 0.00 | 0.00 | 58 | 1009.0 |
| 20260508022039 | 3 | 302 | 0.0 | 3.2 | 0.00 | 0.00 | 0.00 | 57 | 1009.0 |
| 20260508021539 | 4 | 302 | 0.0 | 4.8 | 0.00 | 0.00 | 0.00 | 58 | 1009.0 |
| 20260508021041 | 4 | 302 | 0.0 | 4.8 | 0.00 | 0.00 | 0.00 | 56 | 1009.1 |
| 20260508020538 | 4 | 299 | 0.0 | 1.6 | 0.00 | 0.00 | 0.00 | 55 | 1009.1 |
| 20260508020038 | 5 | 299 | 0.0 | 3.2 | 0.00 | 0.00 | 0.00 | 53 | 1009.1 |
| 20260508015538 | 5 | 299 | 0.0 | 3.2 | 0.00 | 0.03 | 0.00 | 50 | 1009.1 |
| 20260508015038 | 5 | 299 | 0.0 | 9.7 | 0.00 | 0.03 | 0.00 | 49 | 1009.2 |
| 20260508014540 | 5 | 299 | 1.6 | 9.7 | 0.00 | 0.03 | 0.00 | 48 | 1009.1 |
| 20260508014037 | 5 | 280 | 0.0 | 4.8 | 0.00 | 0.03 | 0.00 | 48 | 1009.1 |
| 20260508013538 | 5 | 290 | 0.0 | 4.8 | 0.00 | 0.03 | 0.00 | 47 | 1009.1 |
| 20260508013037 | 5 | 292 | 1.6 | 4.8 | 0.00 | 0.03 | 0.00 | 47 | 1009.1 |
| 20260508012537 | 5 | 286 | 3.2 | 4.8 | 0.00 | 0.03 | 0.00 | 47 | 1009.1 |
| 20260508012037 | 5 | 348 | 1.6 | 8.0 | 0.00 | 0.03 | 0.00 | 47 | 1009.1 |
| 20260508011537 | 5 | 294 | 1.6 | 8.0 | 0.00 | 0.03 | 0.00 | 47 | 1009.1 |
| 20260508011036 | 5 | 289 | 1.6 | 6.4 | 0.00 | 0.03 | 0.00 | 45 | 1009.1 |
| 20260508010536 | 5 | 286 | 1.6 | 8.0 | 0.00 | 0.03 | 0.00 | 45 | 1009.0 |
| 20260508010047 | 5 | 312 | 3.2 | 8.0 | 0.00 | 0.03 | 0.00 | 44 | 1008.8 |
| 20260508005536 | 5 | 301 | 1.6 | 6.4 | 0.00 | 0.03 | 0.00 | 45 | 1008.8 |
| 20260508005039 | 5 | 300 | 1.6 | 4.8 | 0.00 | 0.03 | 0.00 | 45 | 1008.8 |
| 20260508004535 | 5 | 294 | 1.6 | 9.7 | 0.00 | 0.03 | 0.00 | 44 | 1008.7 |
| 20260508004036 | 5 | 300 | 3.2 | 14.5 | 0.00 | 0.03 | 0.00 | 43 | 1008.6 |
| 20260508003535 | 6 | 297 | 3.2 | 8.0 | 0.00 | 0.03 | 0.00 | 43 | 1008.6 |
| 20260508003035 | 6 | 302 | 3.2 | 8.0 | 0.00 | 0.03 | 0.00 | 43 | 1008.5 |
| 20260508002536 | 6 | 305 | 3.2 | 11.3 | 0.00 | 0.03 | 0.00 | 43 | 1008.3 |
| 20260508002034 | 6 | 309 | 3.2 | 11.3 | 0.00 | 0.03 | 0.00 | 41 | 1008.3 |
| 20260508001633 | 6 | 289 | 4.8 | 11.3 | 0.00 | 0.03 | 0.00 | 41 | 1008.2 |
| 20260508001033 | 6 | 279 | 6.4 | 12.9 | 0.00 | 0.03 | 0.00 | 40 | 1008.3 |
| 20260508000536 | 6 | 283 | 6.4 | 12.9 | 0.00 | 0.03 | 0.00 | 39 | 1008.2 |
| 20260508000033 | 6 | 270 | 6.4 | 19.3 | 0.00 | 0.03 | 0.00 | 38 | 1008.2 |
| 20260507235533 | 7 | 287 | 11.3 | 19.3 | 0.00 | 0.03 | 0.00 | 38 | 1008.2 |
| 20260507235033 | 7 | 289 | 9.7 | 19.3 | 0.00 | 0.03 | 0.00 | 38 | 1008.1 |
| 20260507234533 | 7 | 288 | 8.0 | 19.3 | 0.00 | 0.03 | 0.00 | 39 | 1008.0 |
| 20260507234032 | 7 | 303 | 8.0 | 19.3 | 0.00 | 0.03 | 0.00 | 37 | 1008.1 |
| 20260507233532 | 7 | 301 | 8.0 | 17.7 | 0.00 | 0.03 | 0.00 | 36 | 1008.1 |
| 20260507233033 | 7 | 267 | 8.0 | 20.9 | 0.00 | 0.03 | 0.00 | 37 | 1008.1 |
| 20260507232531 | 7 | 289 | 12.9 | 24.1 | 0.00 | 0.03 | 0.00 | 36 | 1008.1 |
| 20260507232032 | 7 | 285 | 11.3 | 25.7 | 0.00 | 0.03 | 0.00 | 36 | 1008.2 |
| 20260507231539 | 7 | 324 | 16.1 | 30.6 | 0.00 | 0.03 | 0.00 | 36 | 1008.2 |
| 20260507231037 | 7 | 294 | 17.7 | 30.6 | 0.00 | 0.03 | 0.00 | 35 | 1008.2 |
| 20260507230532 | 8 | 313 | 12.9 | 25.7 | 0.00 | 0.03 | 0.00 | 36 | 1008.2 |
| 20260507230039 | 8 | 294 | 14.5 | 27.4 | 0.00 | 0.03 | 0.00 | 33 | 1008.1 |
| 20260507225531 | 8 | 298 | 12.9 | 27.4 | 0.00 | 0.03 | 0.00 | 35 | 1008.1 |
| 20260507225031 | 8 | 278 | 12.9 | 33.8 | 0.00 | 0.03 | 0.00 | 33 | 1008.2 |
| 20260507224532 | 8 | 283 | 16.1 | 30.6 | 0.00 | 0.03 | 0.00 | 32 | 1008.2 |
| 20260507224030 | 8 | 298 | 14.5 | 27.4 | 0.00 | 0.03 | 0.00 | 34 | 1008.0 |
| 20260507223529 | 8 | 292 | 17.7 | 27.4 | 0.00 | 0.03 | 0.00 | 33 | 1008.0 |
| 20260507223029 | 8 | 318 | 14.5 | 27.4 | 0.00 | 0.03 | 0.00 | 35 | 1008.1 |
| 20260507222528 | 8 | 312 | 16.1 | 30.6 | 0.00 | 0.03 | 0.00 | 34 | 1008.1 |
| 20260507222028 | 8 | 296 | 14.5 | 30.6 | 0.00 | 0.03 | 0.00 | 32 | 1008.2 |
| 20260507221528 | 8 | 322 | 11.3 | 29.0 | 0.00 | 0.03 | 0.00 | 34 | 1008.2 |
| 20260507221028 | 8 | 300 | 16.1 | 33.8 | 0.00 | 0.03 | 0.00 | 32 | 1008.2 |
| 20260507220527 | 8 | 312 | 19.3 | 33.8 | 0.00 | 0.03 | 0.00 | 30 | 1008.2 |
| 20260507220027 | 8 | 298 | 17.7 | 30.6 | 0.00 | 0.03 | 0.00 | 32 | 1008.3 |
| 20260507215527 | 8 | 287 | 16.1 | 32.2 | 0.00 | 0.05 | 0.00 | 34 | 1008.3 |
| 20260507215026 | 8 | 309 | 17.7 | 33.8 | 0.00 | 0.05 | 0.00 | 33 | 1008.4 |
| 20260507214527 | 9 | 335 | 20.9 | 33.8 | 0.00 | 0.05 | 0.00 | 34 | 1008.4 |
| 20260507214026 | 9 | 312 | 16.1 | 29.0 | 0.00 | 0.05 | 0.00 | 33 | 1008.4 |
| 20260507213532 | 9 | 306 | 17.7 | 29.0 | 0.00 | 0.05 | 0.00 | 34 | 1008.4 |
| 20260507213026 | 9 | 223 | 11.3 | 27.4 | 0.00 | 0.05 | 0.00 | 36 | 1008.4 |
| 20260507212524 | 9 | 285 | 14.5 | 29.0 | 0.00 | 0.05 | 0.00 | 36 | 1008.3 |
| 20260507212024 | 9 | 329 | 12.9 | 33.8 | 0.00 | 0.05 | 0.00 | 41 | 1008.2 |
| 20260507211535 | 9 | 287 | 14.5 | 30.6 | 0.00 | 0.05 | 0.00 | 39 | 1008.3 |
| 20260507211023 | 9 | 275 | 16.1 | 32.2 | 0.00 | 0.05 | 0.00 | 39 | 1008.3 |
| 20260507210523 | 9 | 289 | 16.1 | 32.2 | 0.00 | 0.05 | 0.00 | 38 | 1008.3 |
| 20260507210023 | 9 | 292 | 11.3 | 38.6 | 0.00 | 0.05 | 0.00 | 40 | 1008.3 |
| 20260507205523 | 9 | 289 | 19.3 | 38.6 | 0.00 | 0.10 | 0.00 | 38 | 1008.4 |
| 20260507205022 | 9 | 300 | 14.5 | 33.8 | 0.00 | 0.10 | 0.00 | 41 | 1008.4 |
| 20260507204524 | 9 | 284 | 17.7 | 32.2 | 0.00 | 0.10 | 0.00 | 39 | 1008.4 |
| 20260507204022 | 9 | 284 | 19.3 | 35.4 | 0.00 | 0.10 | 0.00 | 42 | 1008.4 |
| 20260507203523 | 9 | 327 | 22.5 | 35.4 | 0.00 | 0.10 | 0.00 | 39 | 1008.4 |
| 20260507203027 | 9 | 311 | 16.1 | 27.4 | 0.00 | 0.10 | 0.00 | 39 | 1008.4 |
| 20260507202522 | 9 | 296 | 16.1 | 30.6 | 0.00 | 0.10 | 0.00 | 40 | 1008.4 |
| 20260507202020 | 8 | 308 | 19.3 | 33.8 | 0.00 | 0.10 | 0.00 | 40 | 1008.5 |
| 20260507201520 | 9 | 287 | 17.7 | 35.4 | 0.00 | 0.10 | 0.00 | 39 | 1008.6 |
| 20260507201020 | 10 | 307 | 22.5 | 35.4 | 0.00 | 0.10 | 0.00 | 39 | 1008.5 |
| 20260507200520 | 9 | 310 | 17.7 | 32.2 | 0.00 | 0.10 | 0.00 | 40 | 1008.4 |
| 20260507200023 | 9 | 247 | 11.3 | 35.4 | 0.00 | 0.10 | 0.00 | 43 | 1008.5 |
| 20260507195520 | 9 | 331 | 22.5 | 35.4 | 0.00 | 0.15 | 0.00 | 42 | 1008.6 |
| 20260507195018 | 9 | 319 | 14.5 | 29.0 | 0.00 | 0.15 | 0.00 | 39 | 1008.6 |
| 20260507194518 | 9 | 294 | 17.7 | 30.6 | 0.00 | 0.15 | 0.00 | 38 | 1008.7 |
| 20260507194017 | 9 | 267 | 9.7 | 35.4 | 0.00 | 0.15 | 0.00 | 39 | 1008.7 |
| 20260507193517 | 10 | 311 | 20.9 | 35.4 | 0.00 | 0.15 | 0.00 | 41 | 1008.7 |
| 20260507193017 | 10 | 320 | 11.3 | 29.0 | 0.00 | 0.15 | 0.00 | 40 | 1008.8 |
| 20260507192515 | 9 | 321 | 16.1 | 25.7 | 0.00 | 0.15 | 0.00 | 43 | 1008.8 |
| 20260507192015 | 9 | 315 | 16.1 | 32.2 | 0.00 | 0.15 | 0.00 | 40 | 1008.9 |
| 20260507191515 | 10 | 315 | 19.3 | 32.2 | 0.00 | 0.15 | 0.00 | 40 | 1008.8 |
| 20260507191014 | 9 | 261 | 16.1 | 32.2 | 0.00 | 0.15 | 0.00 | 38 | 1009.0 |
| 20260507190514 | 9 | 286 | 17.7 | 30.6 | 0.00 | 0.15 | 0.00 | 44 | 1009.1 |
| 20260507190015 | 9 | 280 | 20.9 | 30.6 | 0.00 | 0.15 | 0.00 | 43 | 1009.0 |
| 20260507185514 | 9 | 301 | 16.1 | 30.6 | 0.00 | 0.18 | 0.00 | 44 | 1009.1 |
| 20260507185014 | 9 | 326 | 16.1 | 30.6 | 0.00 | 0.18 | 0.00 | 41 | 1009.1 |
| 20260507184514 | 9 | 296 | 14.5 | 32.2 | 0.00 | 0.18 | 0.00 | 46 | 1009.1 |
| 20260507184013 | 9 | 297 | 14.5 | 40.2 | 0.00 | 0.18 | 0.00 | 46 | 1009.2 |
| 20260507183519 | 9 | 303 | 17.7 | 33.8 | 0.00 | 0.18 | 0.00 | 47 | 1009.2 |
| 20260507183021 | 8 | 289 | 17.7 | 33.8 | 0.00 | 0.18 | 0.00 | 44 | 1009.4 |
| 20260507182510 | 8 | 240 | 14.5 | 35.4 | 0.00 | 0.18 | 0.00 | 47 | 1009.4 |
| 20260507182010 | 8 | 318 | 17.7 | 35.4 | 0.00 | 0.18 | 0.00 | 46 | 1009.5 |
| 20260507181510 | 8 | 301 | 17.7 | 33.8 | 0.00 | 0.18 | 0.00 | 47 | 1009.4 |
| 20260507181009 | 8 | 279 | 14.5 | 33.8 | 0.00 | 0.18 | 0.00 | 48 | 1009.5 |
| 20260507180509 | 8 | 274 | 3.2 | 32.2 | 0.00 | 0.18 | 0.00 | 48 | 1009.6 |
| 20260507180009 | 8 | 241 | 17.7 | 32.2 | 0.00 | 0.18 | 0.00 | 56 | 1009.6 |
| 20260507175511 | 8 | 298 | 11.3 | 29.0 | 0.00 | 0.18 | 0.00 | 56 | 1009.7 |
| 20260507175009 | 8 | 310 | 19.3 | 33.8 | 0.00 | 0.18 | 0.00 | 54 | 1009.7 |
| 20260507174511 | 8 | 319 | 20.9 | 33.8 | 0.00 | 0.18 | 0.00 | 54 | 1009.6 |
| 20260507174008 | 7 | 271 | 16.1 | 24.1 | 0.00 | 0.18 | 0.00 | 51 | 1009.7 |
| 20260507173508 | 8 | 286 | 9.7 | 30.6 | 0.00 | 0.18 | 0.00 | 55 | 1009.7 |
| 20260507173008 | 8 | 307 | 19.3 | 30.6 | 0.00 | 0.18 | 0.00 | 52 | 1009.7 |
| 20260507172507 | 8 | 303 | 6.4 | 32.2 | 0.00 | 0.18 | 0.00 | 53 | 1009.8 |
| 20260507172005 | 8 | 287 | 17.7 | 32.2 | 0.00 | 0.18 | 0.00 | 56 | 1009.9 |
| 20260507171505 | 7 | 293 | 17.7 | 27.4 | 0.00 | 0.18 | 0.00 | 52 | 1009.9 |
| 20260507171006 | 8 | 267 | 14.5 | 27.4 | 0.00 | 0.18 | 0.00 | 54 | 1009.9 |
| 20260507170504 | 7 | 311 | 16.1 | 29.0 | 0.00 | 0.18 | 0.00 | 57 | 1009.9 |
| 20260507170005 | 7 | 286 | 17.7 | 29.0 | 0.00 | 0.18 | 0.00 | 57 | 1009.9 |
| 20260507165503 | 7 | 287 | 6.4 | 24.1 | 0.00 | 0.25 | 0.00 | 56 | 1009.9 |
| 20260507165003 | 7 | 285 | 14.5 | 29.0 | 0.00 | 0.25 | 0.00 | 55 | 1009.9 |
| 20260507164502 | 7 | 292 | 14.5 | 29.0 | 0.00 | 0.25 | 0.00 | 57 | 1010.1 |
| 20260507164003 | 7 | 293 | 16.1 | 25.7 | 0.00 | 0.25 | 0.00 | 57 | 1010.1 |
| 20260507163503 | 6 | 280 | 9.7 | 29.0 | 0.00 | 0.25 | 0.00 | 59 | 1010.2 |
| 20260507163002 | 6 | 327 | 19.3 | 27.4 | 0.00 | 0.25 | 0.00 | 56 | 1010.2 |
| 20260507162501 | 6 | 324 | 12.9 | 22.5 | 0.00 | 0.25 | 0.00 | 56 | 1010.3 |
| 20260507162000 | 6 | 275 | 14.5 | 24.1 | 0.00 | 0.25 | 0.00 | 56 | 1010.3 |
| 20260507161502 | 6 | 317 | 14.5 | 33.8 | 0.00 | 0.25 | 0.00 | 57 | 1010.3 |
| 20260507161100 | 6 | 301 | 3.2 | 33.8 | 0.00 | 0.25 | 0.00 | 56 | 1010.3 |
| 20260507160600 | 7 | 319 | 14.5 | 22.5 | 0.00 | 0.25 | 0.00 | 54 | 1010.3 |
| 20260507160100 | 7 | 320 | 11.3 | 22.5 | 0.00 | 0.25 | 0.00 | 56 | 1010.4 |
| 20260507155600 | 7 | 300 | 11.3 | 22.5 | 0.00 | 0.33 | 0.00 | 58 | 1010.4 |
| 20260507155100 | 7 | 257 | 8.0 | 24.1 | 0.00 | 0.33 | 0.00 | 55 | 1010.4 |
| 20260507154602 | 6 | 287 | 12.9 | 24.1 | 0.00 | 0.33 | 0.00 | 57 | 1010.6 |
| 20260507154100 | 6 | 307 | 8.0 | 32.2 | 0.00 | 0.33 | 0.00 | 56 | 1010.6 |
| 20260507153559 | 6 | 311 | 17.7 | 32.2 | 0.00 | 0.33 | 0.00 | 57 | 1010.7 |
| 20260507153105 | 7 | 323 | 14.5 | 22.5 | 0.00 | 0.33 | 0.00 | 58 | 1010.8 |
| 20260507152559 | 6 | 205 | 11.3 | 29.0 | 0.00 | 0.33 | 0.00 | 57 | 1010.8 |
| 20260507152100 | 6 | 278 | 14.5 | 29.0 | 0.00 | 0.33 | 0.00 | 57 | 1010.8 |
| 20260507151558 | 6 | 312 | 12.9 | 32.2 | 0.00 | 0.33 | 0.00 | 56 | 1010.8 |
| 20260507151057 | 6 | 290 | 16.1 | 32.2 | 0.00 | 0.33 | 0.00 | 55 | 1010.8 |
| 20260507150557 | 6 | 278 | 11.3 | 29.0 | 0.00 | 0.33 | 0.00 | 55 | 1010.9 |
| 20260507150100 | 6 | 270 | 19.3 | 29.0 | 0.00 | 0.33 | 0.00 | 56 | 1011.0 |
| 20260507145556 | 7 | 283 | 6.4 | 20.9 | 0.00 | 0.43 | 0.00 | 58 | 1011.1 |
| 20260507145054 | 6 | 313 | 9.7 | 30.6 | 0.00 | 0.43 | 0.00 | 61 | 1011.1 |
| 20260507144555 | 6 | 317 | 16.1 | 30.6 | 0.00 | 0.43 | 0.00 | 59 | 1011.0 |
| 20260507144054 | 6 | 285 | 14.5 | 27.4 | 0.00 | 0.43 | 0.00 | 60 | 1011.1 |
| 20260507143553 | 6 | 311 | 19.3 | 32.2 | 0.00 | 0.43 | 0.00 | 56 | 1011.1 |
| 20260507143153 | 6 | 288 | 17.7 | 32.2 | 0.00 | 0.43 | 0.00 | 56 | 1011.1 |
| 20260507142552 | 6 | 305 | 16.1 | 30.6 | 0.00 | 0.43 | 0.00 | 57 | 1011.0 |
| 20260507142050 | 6 | 334 | 14.5 | 25.7 | 0.00 | 0.43 | 0.00 | 58 | 1011.0 |
| 20260507141550 | 6 | 290 | 12.9 | 29.0 | 0.00 | 0.43 | 0.00 | 61 | 1010.9 |
| 20260507141049 | 6 | 315 | 17.7 | 29.0 | 0.00 | 0.43 | 0.00 | 56 | 1010.9 |
| 20260507140548 | 5 | 289 | 14.5 | 30.6 | 0.00 | 0.43 | 0.00 | 56 | 1010.8 |
| 20260507140058 | 6 | 322 | 16.1 | 30.6 | 0.00 | 0.43 | 0.00 | 56 | 1010.9 |
| 20260507135547 | 6 | 273 | 14.5 | 29.0 | 0.00 | 0.56 | 0.00 | 57 | 1010.9 |
| 20260507135043 | 6 | 286 | 11.3 | 24.1 | 0.00 | 0.56 | 0.00 | 60 | 1010.8 |
| 20260507134542 | 6 | 295 | 14.5 | 22.5 | 0.00 | 0.56 | 0.00 | 58 | 1010.8 |
| 20260507134040 | 5 | 309 | 9.7 | 22.5 | 0.00 | 0.56 | 0.00 | 56 | 1010.8 |
| 20260507133539 | 5 | 296 | 8.0 | 24.1 | 0.00 | 0.56 | 0.00 | 57 | 1011.0 |
| 20260507133038 | 5 | 329 | 16.1 | 27.4 | 0.00 | 0.56 | 0.00 | 57 | 1010.9 |
| 20260507132536 | 5 | 330 | 16.1 | 29.0 | 0.00 | 0.56 | 0.00 | 57 | 1011.0 |
| 20260507132035 | 5 | 321 | 20.9 | 29.0 | 0.00 | 0.56 | 0.00 | 57 | 1010.9 |
| 20260507131536 | 5 | 296 | 12.9 | 24.1 | 0.00 | 0.56 | 0.00 | 59 | 1011.0 |
| 20260507131034 | 5 | 294 | 14.5 | 20.9 | 0.00 | 0.56 | 0.00 | 61 | 1010.9 |
| 20260507130534 | 5 | 273 | 12.9 | 20.9 | 0.00 | 0.56 | 0.00 | 59 | 1010.9 |
| 20260507130034 | 5 | 292 | 11.3 | 17.7 | 0.00 | 0.56 | 0.00 | 60 | 1011.0 |
| 20260507125531 | 5 | 288 | 8.0 | 24.1 | 0.00 | 0.58 | 0.00 | 62 | 1010.9 |
| 20260507125031 | 4 | 279 | 12.9 | 24.1 | 0.00 | 0.58 | 0.00 | 63 | 1010.8 |
| 20260507124546 | 4 | 306 | 14.5 | 24.1 | 0.00 | 0.58 | 0.00 | 62 | 1011.0 |
| 20260507124031 | 4 | 295 | 11.3 | 24.1 | 0.00 | 0.58 | 0.00 | 62 | 1010.9 |
| 20260507123529 | 4 | 282 | 8.0 | 22.5 | 0.00 | 0.58 | 0.00 | 65 | 1010.9 |
| 20260507123030 | 3 | 286 | 11.3 | 24.1 | 0.00 | 0.58 | 0.00 | 66 | 1010.9 |
| 20260507122527 | 3 | 325 | 17.7 | 24.1 | 0.00 | 0.58 | 0.00 | 64 | 1010.8 |
| 20260507122026 | 3 | 270 | 12.9 | 24.1 | 0.00 | 0.58 | 0.00 | 68 | 1010.7 |
| 20260507121525 | 3 | 309 | 12.9 | 17.7 | 0.00 | 0.58 | 0.00 | 66 | 1010.7 |
| 20260507121024 | 3 | 310 | 11.3 | 19.3 | 0.00 | 0.58 | 0.00 | 67 | 1010.8 |
| 20260507120524 | 3 | 307 | 11.3 | 19.3 | 0.00 | 0.58 | 0.00 | 67 | 1010.7 |
| 20260507120021 | 3 | 304 | 11.3 | 16.1 | 0.00 | 0.58 | 0.00 | 69 | 1010.6 |
| 20260507115520 | 3 | 224 | 9.7 | 17.7 | 0.00 | 0.61 | 0.00 | 70 | 1010.5 |
| 20260507115021 | 3 | 298 | 9.7 | 17.7 | 0.00 | 0.61 | 0.00 | 69 | 1010.4 |
| 20260507114517 | 3 | 246 | 4.8 | 17.7 | 0.00 | 0.61 | 0.00 | 70 | 1010.5 |
| 20260507114016 | 3 | 305 | 4.8 | 14.5 | 0.00 | 0.61 | 0.00 | 71 | 1010.5 |
| 20260507113515 | 2 | 296 | 6.4 | 16.1 | 0.00 | 0.61 | 0.00 | 71 | 1010.6 |
| 20260507113017 | 2 | 285 | 4.8 | 16.1 | 0.00 | 0.61 | 0.00 | 72 | 1010.5 |
| 20260507112511 | 2 | 257 | 4.8 | 14.5 | 0.00 | 0.61 | 0.00 | 73 | 1010.6 |
| 20260507112009 | 2 | 302 | 3.2 | 12.9 | 0.00 | 0.61 | 0.00 | 73 | 1010.4 |
| 20260507111513 | 2 | 291 | 4.8 | 17.7 | 0.00 | 0.61 | 0.00 | 73 | 1010.5 |
| 20260507111006 | 2 | 314 | 9.7 | 17.7 | 0.00 | 0.61 | 0.00 | 72 | 1010.5 |
| 20260507110505 | 2 | 292 | 4.8 | 14.5 | 0.00 | 0.61 | 0.00 | 75 | 1010.5 |
| 20260507110011 | 1 | 264 | 6.4 | 17.7 | 0.00 | 0.61 | 0.00 | 76 | 1010.3 |
| 20260507105502 | 1 | 264 | 4.8 | 19.3 | 0.00 | 0.66 | 0.00 | 77 | 1010.1 |
| 20260507105103 | 1 | 229 | 3.2 | 19.3 | 0.00 | 0.66 | 0.00 | 77 | 1010.0 |
| 20260507104600 | 1 | 281 | 8.0 | 17.7 | 0.00 | 0.66 | 0.00 | 78 | 1010.0 |
| 20260507104059 | 1 | 239 | 6.4 | 17.7 | 0.00 | 0.66 | 0.00 | 80 | 1010.0 |
| 20260507103558 | 1 | 272 | 4.8 | 14.5 | 0.00 | 0.66 | 0.00 | 82 | 1009.8 |
| 20260507103056 | 1 | 246 | 1.6 | 11.3 | 0.00 | 0.66 | 0.00 | 82 | 1009.7 |
| 20260507102555 | 1 | 279 | 1.6 | 8.0 | 0.00 | 0.66 | 0.00 | 84 | 1009.7 |
| 20260507102054 | 1 | 292 | 1.6 | 9.7 | 0.00 | 0.66 | 0.00 | 85 | 1009.7 |
| 20260507101558 | 0 | 288 | 1.6 | 6.4 | 0.00 | 0.66 | 0.00 | 86 | 1009.7 |
| 20260507101055 | 0 | 275 | 0.0 | 6.4 | 0.00 | 0.66 | 0.00 | 86 | 1009.7 |
| 20260507100553 | 0 | 269 | 0.0 | 6.4 | 0.00 | 0.66 | 0.00 | 86 | 1009.8 |
| 20260507100056 | 0 | 254 | 0.0 | 12.9 | 0.00 | 0.66 | 0.00 | 86 | 1009.7 |
| 20260507095554 | 0 | 235 | 1.6 | 12.9 | 0.00 | 0.71 | 0.00 | 86 | 1009.8 |
| 20260507095052 | 1 | 286 | 0.0 | 4.8 | 0.00 | 0.71 | 0.00 | 86 | 1009.7 |
| 20260507094551 | 1 | 283 | 0.0 | 4.8 | 0.00 | 0.71 | 0.00 | 86 | 1009.7 |
| 20260507094053 | 1 | 282 | 0.0 | 4.8 | 0.00 | 0.71 | 0.00 | 86 | 1009.8 |
| 20260507093552 | 1 | 278 | 0.0 | 4.8 | 0.00 | 0.71 | 0.00 | 86 | 1009.9 |
| 20260507093050 | 1 | 278 | 0.0 | 4.8 | 0.00 | 0.71 | 0.00 | 86 | 1009.9 |
| 20260507092551 | 1 | 277 | 0.0 | 4.8 | 0.00 | 0.71 | 0.00 | 86 | 1009.9 |
| 20260507092052 | 1 | 293 | 1.6 | 6.4 | 0.00 | 0.71 | 0.00 | 87 | 1009.9 |
| 20260507091547 | 1 | 274 | 1.6 | 12.9 | 0.00 | 0.71 | 0.00 | 87 | 1010.0 |
| 20260507091047 | 1 | 290 | 1.6 | 12.9 | 0.00 | 0.71 | 0.00 | 87 | 1010.0 |
| 20260507090547 | 1 | 271 | 0.0 | 8.0 | 0.00 | 0.71 | 0.00 | 87 | 1009.9 |
| 20260507090045 | 1 | 294 | 0.0 | 11.3 | 0.00 | 0.71 | 0.00 | 87 | 1009.9 |
| 20260507085546 | 1 | 297 | 1.6 | 12.9 | 0.00 | 0.71 | 0.00 | 87 | 1009.9 |
| 20260507085043 | 1 | 289 | 1.6 | 9.7 | 0.00 | 0.71 | 0.00 | 87 | 1009.8 |
| 20260507084542 | 1 | 292 | 3.2 | 8.0 | 0.00 | 0.71 | 0.00 | 87 | 1009.7 |
| 20260507084041 | 1 | 291 | 1.6 | 8.0 | 0.00 | 0.71 | 0.00 | 87 | 1009.7 |
| 20260507083544 | 2 | 303 | 0.0 | 12.9 | 0.00 | 0.71 | 0.00 | 87 | 1009.7 |
| 20260507083041 | 2 | 299 | 1.6 | 12.9 | 0.00 | 0.71 | 0.00 | 87 | 1009.7 |
| 20260507082540 | 2 | 297 | 1.6 | 12.9 | 0.00 | 0.71 | 0.00 | 87 | 1009.7 |
| 20260507082039 | 2 | 285 | 3.2 | 12.9 | 0.00 | 0.71 | 0.00 | 88 | 1009.8 |
| 20260507081537 | 2 | 274 | 4.8 | 12.9 | 0.00 | 0.71 | 0.00 | 88 | 1009.7 |
| 20260507081038 | 2 | 290 | 3.2 | 12.9 | 0.00 | 0.71 | 0.00 | 88 | 1009.7 |
| 20260507080536 | 2 | 280 | 0.0 | 6.4 | 0.00 | 0.71 | 0.00 | 88 | 1009.7 |
| 20260507080037 | 2 | 281 | 0.0 | 4.8 | 0.00 | 0.71 | 0.00 | 88 | 1009.6 |
| 20260507075535 | 2 | 293 | 0.0 | 6.4 | 0.00 | 0.71 | 0.00 | 88 | 1009.7 |
| 20260507075036 | 2 | 244 | 1.6 | 9.7 | 0.00 | 0.71 | 0.00 | 88 | 1009.7 |
| 20260507074537 | 2 | 292 | 3.2 | 12.9 | 0.00 | 0.71 | 0.00 | 88 | 1009.6 |
| 20260507074033 | 2 | 308 | 3.2 | 14.5 | 0.00 | 0.71 | 0.00 | 88 | 1009.7 |
| 20260507073536 | 2 | 306 | 1.6 | 17.7 | 0.00 | 0.71 | 0.00 | 89 | 1009.7 |
| 20260507073032 | 3 | 285 | 9.7 | 17.7 | 0.00 | 0.71 | 0.00 | 89 | 1009.5 |
| 20260507072532 | 3 | 315 | 3.2 | 16.1 | 0.00 | 0.71 | 0.00 | 89 | 1009.6 |
| 20260507072031 | 3 | 279 | 9.7 | 17.7 | 0.00 | 0.71 | 0.00 | 90 | 1009.5 |
| 20260507071531 | 3 | 248 | 8.0 | 19.3 | 0.00 | 0.71 | 0.00 | 90 | 1009.6 |
| 20260507071028 | 3 | 300 | 11.3 | 19.3 | 0.00 | 0.71 | 0.00 | 91 | 1009.5 |
| 20260507070528 | 3 | 287 | 6.4 | 12.9 | 0.00 | 0.71 | 0.00 | 91 | 1009.4 |
| 20260507070031 | 3 | 290 | 4.8 | 9.7 | 0.00 | 0.71 | 0.00 | 91 | 1009.5 |
| 20260507065529 | 3 | 270 | 1.6 | 4.8 | 0.00 | 0.71 | 0.00 | 91 | 1009.6 |
| 20260507065027 | 3 | 293 | 0.0 | 6.4 | 0.00 | 0.71 | 0.00 | 91 | 1009.6 |
| 20260507064526 | 3 | 293 | 0.0 | 12.9 | 0.00 | 0.71 | 0.00 | 91 | 1009.6 |
| 20260507064026 | 3 | 285 | 4.8 | 12.9 | 0.00 | 0.71 | 0.00 | 91 | 1009.4 |
| 20260507063526 | 3 | 288 | 4.8 | 12.9 | 0.00 | 0.71 | 0.00 | 91 | 1009.3 |
| 20260507063036 | 3 | 294 | 6.4 | 14.5 | 0.00 | 0.71 | 0.00 | 91 | 1009.3 |
| 20260507062524 | 3 | 308 | 6.4 | 20.9 | 0.00 | 0.71 | 0.00 | 91 | 1009.2 |
| 20260507062024 | 3 | 295 | 11.3 | 20.9 | 0.00 | 0.71 | 0.00 | 91 | 1009.0 |
| 20260507061526 | 3 | 269 | 11.3 | 27.4 | 0.00 | 0.71 | 0.00 | 91 | 1009.1 |
| 20260507061023 | 3 | 312 | 17.7 | 30.6 | 0.00 | 0.71 | 0.00 | 91 | 1009.3 |
| 20260507060522 | 3 | 280 | 17.7 | 32.2 | 0.00 | 0.71 | 0.00 | 91 | 1009.3 |
| 20260507060035 | 3 | 299 | 20.9 | 32.2 | 0.00 | 0.71 | 0.00 | 91 | 1009.3 |
| 20260507055520 | 4 | 278 | 14.5 | 22.5 | 0.00 | 0.71 | 0.00 | 92 | 1009.2 |
| 20260507055018 | 4 | 331 | 8.0 | 16.1 | 0.00 | 0.71 | 0.00 | 92 | 1009.1 |
| 20260507054517 | 4 | 306 | 4.8 | 11.3 | 0.00 | 0.71 | 0.00 | 92 | 1009.1 |
| 20260507054017 | 5 | 313 | 4.8 | 17.7 | 0.00 | 0.71 | 0.00 | 92 | 1009.2 |
| 20260507053517 | 5 | 314 | 6.4 | 17.7 | 0.00 | 0.71 | 0.00 | 92 | 1009.2 |
| 20260507053016 | 5 | 309 | 4.8 | 16.1 | 0.00 | 0.71 | 0.00 | 92 | 1009.2 |
| 20260507052515 | 5 | 313 | 4.8 | 9.7 | 0.00 | 0.71 | 0.00 | 92 | 1009.2 |
| 20260507052014 | 5 | 294 | 1.6 | 12.9 | 0.00 | 0.71 | 0.00 | 92 | 1009.4 |
| 20260507051514 | 5 | 263 | 4.8 | 12.9 | 0.00 | 0.71 | 0.00 | 92 | 1009.3 |
| 20260507051015 | 5 | 298 | 1.6 | 11.3 | 0.00 | 0.71 | 0.00 | 92 | 1009.3 |
| 20260507050514 | 5 | 234 | 1.6 | 6.4 | 0.00 | 0.71 | 0.00 | 92 | 1009.4 |
| 20260507050012 | 5 | 290 | 1.6 | 6.4 | 0.00 | 0.71 | 0.00 | 92 | 1009.4 |
| 20260507045511 | 5 | 300 | 1.6 | 6.4 | 0.00 | 0.71 | 0.00 | 92 | 1009.3 |
| 20260507045011 | 5 | 302 | 1.6 | 6.4 | 0.00 | 0.71 | 0.00 | 92 | 1009.1 |
| 20260507044514 | 5 | 301 | 0.0 | 4.8 | 0.00 | 0.71 | 0.00 | 93 | 1009.2 |
| 20260507044009 | 5 | 309 | 0.0 | 6.4 | 0.00 | 0.71 | 0.00 | 93 | 1009.1 |
| 20260507043508 | 5 | 310 | 3.2 | 6.4 | 0.00 | 0.71 | 0.00 | 93 | 1009.0 |
| 20260507043008 | 5 | 297 | 1.6 | 3.2 | 0.00 | 0.71 | 0.00 | 93 | 1008.9 |
| 20260507042511 | 5 | 297 | 0.0 | 3.2 | 0.00 | 0.71 | 0.00 | 92 | 1009.0 |
| 20260507042006 | 5 | 297 | 0.0 | 1.6 | 0.00 | 0.71 | 0.00 | 92 | 1009.0 |
| 20260507041506 | 5 | 297 | 0.0 | 1.6 | 0.00 | 0.71 | 0.00 | 93 | 1009.1 |
| 20260507041005 | 4 | 297 | 0.0 | 4.8 | 0.00 | 0.71 | 0.00 | 93 | 1008.9 |
| 20260507040504 | 4 | 297 | 1.6 | 6.4 | 0.00 | 0.71 | 0.00 | 93 | 1008.9 |
| 20260507040006 | 4 | 297 | 1.6 | 6.4 | 0.00 | 0.71 | 0.00 | 93 | 1008.9 |
| 20260507035502 | 5 | 286 | 0.0 | 4.8 | 0.00 | 0.71 | 0.71 | 93 | 1009.2 |